TimeHST,TemperatureF,Dew PointF,Humidity,Sea Level PressureIn,VisibilityMPH,Wind Direction,Wind SpeedMPH,Gust SpeedMPH,PrecipitationIn,Events,Conditions,WindDirDegrees,DateUTC
12:54 AM,72.0,57.9,61,30.09,10.0,NNE,9.2,20.7,N/A,,Clear,20,2012-11-27 10:54:00
1:54 AM,72.0,57.9,61,30.09,10.0,NE,9.2,19.6,N/A,,Clear,40,2012-11-27 11:54:00
2:54 AM,72.0,57.9,61,30.07,10.0,NNE,10.4,18.4,N/A,,Clear,30,2012-11-27 12:54:00
3:54 AM,72.0,57.9,61,30.07,10.0,NNE,11.5,21.9,N/A,,Clear,30,2012-11-27 13:54:00
4:54 AM,71.1,59.0,66,30.07,10.0,NNE,10.4,23.0,N/A,,Clear,30,2012-11-27 14:54:00
5:54 AM,72.0,59.0,64,30.09,10.0,NE,9.2,-,N/A,,Scattered Clouds,40,2012-11-27 15:54:00
6:54 AM,71.1,60.1,68,30.10,10.0,NNE,12.7,25.3,0.00,Rain,Light Rain,30,2012-11-27 16:54:00
7:54 AM,73.0,59.0,61,30.12,10.0,NE,10.4,16.1,0.00,,Scattered Clouds,50,2012-11-27 17:54:00
8:54 AM,73.9,57.0,55,30.12,10.0,NE,12.7,18.4,N/A,,Mostly Cloudy,50,2012-11-27 18:54:00
9:54 AM,75.0,57.9,55,30.14,10.0,ENE,16.1,21.9,N/A,,Scattered Clouds,60,2012-11-27 19:54:00
10:54 AM,75.9,60.1,58,30.12,10.0,NE,12.7,24.2,N/A,,Mostly Cloudy,40,2012-11-27 20:54:00
11:54 AM,77.0,60.1,56,30.09,10.0,NNE,16.1,25.3,N/A,,Mostly Cloudy,30,2012-11-27 21:54:00
12:54 PM,75.9,55.9,50,30.07,10.0,NNE,11.5,23.0,N/A,,Scattered Clouds,30,2012-11-27 22:54:00
1:54 PM,78.1,57.9,50,30.04,10.0,NE,13.8,24.2,N/A,,Overcast,50,2012-11-27 23:54:00
2:54 PM,73.9,57.9,57,30.03,10.0,NE,16.1,26.5,N/A,,Scattered Clouds,40,2012-11-28 00:54:00
3:54 PM,77.0,55.9,48,30.03,10.0,NE,11.5,21.9,N/A,,Mostly Cloudy,40,2012-11-28 01:54:00
4:54 PM,75.0,57.0,53,30.04,10.0,NNE,11.5,23.0,N/A,,Mostly Cloudy,30,2012-11-28 02:54:00
5:54 PM,73.0,57.0,57,30.05,10.0,NE,10.4,20.7,N/A,,Scattered Clouds,50,2012-11-28 03:54:00
6:54 PM,71.1,60.1,68,30.06,10.0,NE,8.1,-,N/A,,Partly Cloudy,40,2012-11-28 04:54:00
7:54 PM,72.0,59.0,64,30.08,10.0,NE,12.7,20.7,N/A,,Clear,40,2012-11-28 05:54:00
8:54 PM,72.0,57.9,61,30.09,10.0,NE,8.1,-,N/A,,Clear,40,2012-11-28 06:54:00
9:54 PM,71.1,59.0,66,30.09,10.0,ENE,11.5,17.3,N/A,,Clear,60,2012-11-28 07:54:00
10:54 PM,71.1,59.0,66,30.10,10.0,NE,11.5,-,N/A,,Clear,50,2012-11-28 08:54:00
11:54 PM,71.1,57.9,63,30.09,10.0,NE,10.4,19.6,N/A,,Clear,40,2012-11-28 09:54:00